Find Starlink 37675

NORAD ID: 100299 Int'l Des: 2026-183 Owner: SPXS Country: US Constellation: starlink operational

Aktuelle Ansicht

3D-Globus wird geladen...

About Starlink 37675

Starlink 37675 (NORAD 100299) is a starlink constellation satellite launched Aug 11, 2026 by SPXS of US. with a mass of 575.00 kg.

Nächste Überflüge

Passes for default location (London). Set your location on the main map for personalized predictions.

Höhenverlauf

Loading altitude history...

Zweizeiliger Elementsatz

1 A0299U 26183AD 26247.73211461 .00174630 00000-0 91042-3 0 9996
2 A0299 53.1581 334.6244 0000693 69.5245 290.5851 15.79893199 3835
Epoch: 4. Sept. 2026 • Age: 22 hours

Aktueller Status

Höhe 333.7 km
Apogäum / Perigäum N/A
Geschwindigkeit 7.71 km/s
Subsatellitenpunkt 43.37°N, 164.07°E
Startdatum 11. Aug. 2026
Alter 24 days
Typ internet

Technische Details

Klassifizierung Payload
Masse 575.00 kg
Trockenmasse 530.00 kg
Gesamtmasse 575.00 kg
Länge 0.30 m
Durchmesser 4.10 m
Spannweite 29.00 m
Form Box + pan
Hersteller SPXS
Bus-Typ Starlink V2MO
Phasenstatus In Orbit
Besitzer/Staat SPXS/US

Most Searched